Weather History for Dutch Harbor, AK

Change the Weather History Date:

Monday, December 10, 2012

  Actual Average Record
Temperature  
Mean Temperature 38 °F -  
Max Temperature 48 °F 37 °F 48 °F (2012)
Min Temperature 33 °F 28 °F 22 °F (1988)
Degree Days  
Heating Degree Days 27    
Moisture  
Dew Point 27 °F    
Average Humidity 68    
Maximum Humidity 82    
Minimum Humidity 52    
Precipitation  
Precipitation 0.00 in - - ()
Sea Level Pressure  
Sea Level Pressure 30.03 in    
Wind  
Wind Speed 12 mph (SW)    
Max Wind Speed 18 mph    
Max Gust Speed 26 mph    
Visibility 10 miles    
Events Rain , Snow    
Averages and records for this station are not official NWS values.
T = Trace of Precipitation, MM = Missing Value Source: NWS Daily Summary

Daily Weather History Graph

Daily Weather History Graph

Search for Another Location

Airport:

Trip Planner

Search our weather history database for the weather conditions in past years. The results will help you decide how hot, cold, wet, or windy it might be!

Date:

Astronomy

Dec. 10, 2012 Rise Set
Actual Time 10:14 AM AKST 5:44 PM AKST
Civil Twilight 9:30 AM AKST 6:27 PM AKST
Nautical Twilight 8:45 AM AKST 7:13 PM AKST
Astronomical Twilight 8:02 AM AKST 7:56 PM AKST
Moon 6:56 AM AKST (12/10) 3:57 PM AKST (12/10)
Length of Visible Light 8h 56m
Length of Day
7h 30m
Waning Crescent, 9% of the Moon is Illuminated
Dec 10
Waning Crescent
Dec 12
New
Dec 19
First Quarter
Dec 28
Full
Jan 4
Last Quarter

Hourly Weather History & Observations

Time (AKST) Temp. Windchill Dew Point Humidity Pressure Visibility Wind Dir Wind Speed Gust Speed Precip Events Conditions
12:56 AM 36.0 °F 26.0 °F 26.1 °F 67% 29.79 in 10.0 mi West 17.3 mph - 0.00 in Rain Light Rain
1:56 AM 34.0 °F 23.8 °F 28.9 °F 82% 29.83 in 10.0 mi West 16.1 mph - 0.00 in Rain Light Rain
2:56 AM 35.1 °F 26.9 °F 25.0 °F 67% 29.86 in 10.0 mi West 11.5 mph 21.9 mph 0.00 in   Overcast
3:56 AM 35.1 °F 26.4 °F 27.0 °F 72% 29.91 in 10.0 mi West 12.7 mph - 0.00 in Rain Light Rain
4:56 AM 33.1 °F 27.7 °F 28.0 °F 82% 29.94 in 8.0 mi West 5.8 mph - 0.00 in Snow Light Snow
5:09 AM 33.8 °F 23.2 °F 28.4 °F 81% 29.94 in 9.0 mi WNW 17.3 mph 26.5 mph 0.00 in Rain Light Rain
5:38 AM 33.8 °F 29.6 °F 28.4 °F 81% 29.94 in 5.0 mi WNW 4.6 mph - 0.00 in Snow Light Snow
5:54 AM 35.6 °F 29.2 °F 26.6 °F 70% 29.96 in 9.0 mi NW 8.1 mph - 0.00 in   Overcast
5:56 AM 35.1 °F 29.3 °F 26.1 °F 70% 29.98 in 10.0 mi WNW 6.9 mph - 0.00 in   Overcast
6:56 AM 36.0 °F 26.3 °F 23.0 °F 59% 30.02 in 10.0 mi West 16.1 mph 21.9 mph 0.00 in   Mostly Cloudy
7:56 AM 35.1 °F 27.9 °F 26.1 °F 70% 30.05 in 10.0 mi WSW 9.2 mph - 0.00 in Rain Light Rain
8:56 AM 35.1 °F 28.6 °F 25.0 °F 67% 30.09 in 10.0 mi WSW 8.1 mph - 0.00 in   Overcast
9:56 AM 36.0 °F 27.5 °F 21.9 °F 57% 30.12 in 9.0 mi West 12.7 mph 17.3 mph 0.00 in Snow Light Snow
10:56 AM 36.0 °F 31.1 °F 19.9 °F 52% 30.15 in 10.0 mi WSW 5.8 mph - 0.00 in   Mostly Cloudy
11:56 AM 36.0 °F 29.0 °F 21.0 °F 55% 30.18 in 10.0 mi WSW 9.2 mph - N/A   Mostly Cloudy
12:56 PM 37.0 °F 30.4 °F 21.0 °F 52% 30.21 in 10.0 mi SSW 9.2 mph 18.4 mph N/A   Mostly Cloudy
1:56 PM 37.0 °F 29.3 °F 21.9 °F 54% 30.22 in 10.0 mi SW 11.5 mph - N/A   Partly Cloudy
2:56 PM 37.0 °F 30.4 °F 24.1 °F 59% 30.21 in 10.0 mi SSW 9.2 mph - N/A   Scattered Clouds
3:56 PM 35.1 °F 31.0 °F 21.0 °F 57% 30.19 in 10.0 mi SE 4.6 mph - N/A   Scattered Clouds
4:56 PM 35.1 °F 28.6 °F 23.0 °F 61% 30.18 in 10.0 mi SSE 8.1 mph - N/A   Mostly Cloudy
5:56 PM 36.0 °F - 23.0 °F 59% 30.16 in 10.0 mi Calm Calm - N/A   Mostly Cloudy
6:56 PM 39.0 °F 31.8 °F 27.0 °F 62% 30.12 in 10.0 mi SSE 11.5 mph 19.6 mph 0.00 in Rain Light Rain
7:56 PM 37.9 °F 30.9 °F 30.0 °F 73% 30.09 in 10.0 mi SE 10.4 mph 21.9 mph 0.00 in Rain Light Rain
8:56 PM 37.9 °F 28.2 °F 32.0 °F 79% 30.04 in 10.0 mi SE 18.4 mph 26.5 mph 0.00 in Rain Light Rain
9:56 PM 39.0 °F 32.8 °F 34.0 °F 82% 29.99 in 10.0 mi SSE 9.2 mph 18.4 mph 0.00 in   Overcast
10:32 PM 42.8 °F 34.8 °F 35.6 °F 76% 29.91 in 10.0 mi SSE 17.3 mph 25.3 mph 0.00 in   Overcast
10:52 PM 42.8 °F 35.8 °F 37.4 °F 81% 29.91 in 10.0 mi South 13.8 mph 23.0 mph 0.00 in   Overcast
10:56 PM 43.0 °F 36.0 °F 37.0 °F 80% 29.91 in 10.0 mi South 13.8 mph 23.0 mph 0.00 in   Overcast
11:56 PM 48.0 °F - 37.9 °F 68% 29.91 in 10.0 mi SSW 11.5 mph - N/A   Overcast